Location: Newark
(22.3060°N, 114.2134°E)
Time: 04:56:31
(UTC+00:00)

Tiros 1 despin weight - Pass Details

Date: 02 August 2021
Orbit: 593 x 641 km, 48.2° (Epoch: 26 September)

Event Time Altitude Azimuth Distance (km) Brightness Sun altitude
Rises 13:13:35 0° 305° (NW) 2,915 ? -27.7°
Reaches altitude 10° 13:16:03 10° 297° (WNW) 1,999 ? -28.1°
Enters shadow 13:19:27 33° 254° (WSW) 1,041 ? -28.7°
